Wind_Gust
24 25 25 25 25 25 25 25 24 24 24 24 23 23 23 22 22 22 21 20 20 20 20 20 20 20 20 20 21 20 20 21 22 17 20 11 6 6 7 7 6 6 8 14 17 16 15 15 17 16 19 19 21 22 22 21 21 20 25 23 23 23 23 17 22 17 18 21 18 19 17 15 13 16 17 17 21 27 30 34 35 37 37 37 35 35 31 33
25 25 26 26 26 26 25 25 26 25 25 25 24 24 23 23 22 22 22 21 21 20 20 19 19 19 20 19 20 18 22 19 21 21 19 9 5 7 5 6 5 6 5 16 18 16 15 15 15 17 19 21 16 22 17 26 22 24 21 23 24 21 22 18 24 19 25 26 29 20 20 18 13 12 22 18 13 23 30 25 31 38 40 41 41 40 39 39
25 26 26 27 27 27 27 26 26 26 26 26 25 24 24 23 22 22 22 22 21 20 20 20 19 19 20 18 16 15 18 20 19 16 13 9 7 7 7 7 6 5 12 17 18 21 20 17 15 16 19 21 20 23 19 26 24 20 21 23 25 20 24 21 24 25 19 23 22 21 20 10 15 17 11 14 14 22 25 24 23 29 32 41 40 36 36 43
26 25 27 27 28 28 28 28 27 26 26 26 26 25 24 23 23 23 23 23 22 21 20 20 19 18 19 20 14 21 18 20 17 17 11 8 8 8 10 9 9 12 15 20 23 25 21 22 20 17 20 22 20 22 24 19 19 19 25 25 22 22 24 21 25 26 24 24 18 12 12 14 14 14 13 18 18 17 17 22 28 27 28 29 33 35 39 40
26 26 27 27 26 27 27 28 27 27 27 28 27 26 25 24 24 23 23 24 22 22 20 19 19 18 18 17 17 19 16 20 17 14 13 9 9 12 9 9 9 17 19 21 25 23 21 21 18 17 22 21 19 17 19 20 19 21 22 22 25 26 29 21 21 25 23 23 19 17 14 17 14 12 16 17 18 17 14 15 27 28 27 32 30 29 31 33
25 26 28 26 27 27 27 27 28 27 28 28 28 26 26 24 24 23 24 24 23 22 20 18 18 18 17 16 22 17 16 12 14 15 8 10 11 9 10 11 13 17 20 23 25 23 21 16 15 18 19 20 18 18 17 21 20 25 19 17 21 25 26 17 17 19 15 19 15 15 16 16 14 18 17 13 15 16 22 24 28 30 26 27 29 29 29 29
26 26 26 27 28 28 29 28 28 28 28 29 28 27 25 25 23 24 23 24 23 22 20 18 17 18 19 22 22 15 20 14 11 12 9 11 11 8 12 13 11 17 20 24 26 24 13 16 17 16 19 19 20 21 20 21 20 20 23 18 22 24 24 14 17 15 10 14 16 18 19 19 16 16 14 19 13 17 21 28 29 32 31 27 27 26 27 28
26 27 26 27 29 30 29 28 29 29 29 28 28 26 25 24 24 24 24 24 23 22 21 16 16 15 15 21 17 19 22 15 17 15 10 7 12 14 11 18 20 20 22 25 24 21 18 17 18 16 22 22 12 22 14 24 18 18 24 19 20 18 17 16 15 14 11 13 14 13 19 18 18 17 16 14 15 22 19 24 28 26 25 25 24 26 30 27
27 27 26 27 30 30 29 29 30 30 29 29 27 27 25 24 23 23 24 24 23 22 20 15 14 13 7 12 16 22 17 20 18 17 18 13 14 14 15 17 19 24 26 28 25 24 17 13 15 19 15 14 10 17 16 15 19 18 22 20 16 9 13 14 17 17 16 15 13 18 17 18 18 13 17 18 22 19 23 21 26 29 28 28 26 23 24 26
26 27 27 28 31 31 30 30 30 30 30 28 26 26 26 25 24 23 24 24 22 22 19 14 12 11 15 13 17 19 20 18 18 18 16 14 13 14 13 19 15 15 19 16 18 15 14 19 18 14 11 17 11 19 12 15 17 11 23 17 17 17 11 12 14 15 15 17 14 17 15 18 15 13 22 19 22 32 35 35 36 35 31 29 28 28 26 31
26 27 28 29 32 31 31 30 31 30 29 27 27 26 27 26 24 23 23 22 23 21 17 14 10 12 16 17 17 14 17 17 16 15 16 14 13 13 17 13 11 18 16 14 17 12 14 16 17 17 14 21 14 14 10 14 8 14 15 17 13 17 11 16 11 18 14 16 14 13 16 13 19 17 20 15 13 35 34 31 31 29 26 26 26 27 25 26
26 27 28 30 33 32 31 31 31 30 29 27 26 26 26 25 24 22 22 21 21 20 15 10 8 13 17 18 19 16 17 12 17 14 14 10 14 14 12 11 11 16 16 17 16 12 14 16 12 16 17 16 16 16 18 11 10 14 14 17 16 17 22 17 17 16 12 18 13 11 16 19 15 16 16 14 21 34 34 33 30 27 26 24 27 27 28 28
26 27 29 31 33 32 30 31 30 31 28 27 25 25 25 25 24 22 20 20 15 13 8 6 9 14 15 17 15 14 15 14 17 14 13 12 16 12 14 8 13 11 13 16 18 12 11 14 13 16 15 15 16 17 16 11 9 14 13 16 18 20 22 18 18 13 10 9 12 9 16 17 23 19 14 17 31 34 31 29 27 29 31 31 26 29 29 26
26 28 29 32 33 32 31 31 31 29 28 25 26 25 25 26 23 20 18 17 20 17 12 6 14 16 13 16 15 9 14 12 14 15 14 15 16 18 13 8 10 14 10 14 12 13 9 13 14 19 17 19 16 16 18 13 10 18 16 16 20 20 25 22 19 15 16 17 13 11 18 21 22 18 16 16 31 31 26 23 24 25 24 25 24 25 28 27
25 29 28 32 31 32 31 33 30 28 26 26 26 27 27 25 22 19 16 15 14 9 8 7 17 12 12 16 12 12 12 15 16 16 15 18 20 22 14 13 13 10 10 11 14 12 11 12 15 17 18 11 15 13 13 18 18 17 19 20 20 21 21 26 20 18 16 24 14 17 18 15 22 17 12 19 28 29 26 25 25 26 26 24 22 21 21 25
27 28 27 29 30 30 31 32 30 28 27 28 29 31 28 25 18 15 15 13 17 13 16 13 19 18 18 20 17 12 11 17 18 23 12 11 18 17 14 10 11 11 8 10 12 11 10 13 18 16 20 15 16 18 16 19 19 19 19 14 21 19 18 26 22 20 17 16 15 14 20 14 19 15 10 24 32 30 30 28 29 28 26 21 18 19 22 24
27 27 27 26 28 28 31 31 31 30 29 28 31 30 26 21 14 12 16 16 14 13 14 17 14 22 15 19 11 14 19 24 12 16 13 16 14 18 14 17 19 14 11 10 14 10 13 17 14 20 16 22 15 18 18 18 18 21 20 20 19 22 24 24 27 22 17 14 15 14 19 19 13 14 17 26 31 31 29 26 24 23 22 18 18 19 19 18
25 27 27 27 29 29 30 32 32 31 30 30 26 24 31 23 12 13 14 11 17 19 19 22 22 17 26 20 17 12 13 18 12 21 11 9 11 10 16 18 23 17 16 18 16 19 14 21 15 20 17 17 19 21 21 19 21 16 19 14 18 21 19 16 27 21 17 14 13 13 16 13 16 16 18 25 30 30 26 24 21 21 19 18 18 20 18 17
26 27 28 27 29 30 31 31 34 31 28 31 26 20 18 12 17 17 19 15 14 12 14 21 18 19 19 15 16 9 14 17 9 11 12 15 16 13 16 17 16 12 27 24 23 20 20 17 17 17 19 18 20 21 23 16 25 25 16 17 19 15 15 21 23 22 15 18 15 15 20 19 24 19 17 22 27 29 23 21 21 20 20 18 18 17 17 16
25 27 28 28 29 30 31 31 32 32 27 28 28 25 18 23 20 13 19 20 21 19 20 15 22 17 14 17 17 16 10 8 8 18 23 22 13 13 15 14 12 16 21 18 18 18 13 20 16 18 18 17 14 16 15 17 17 20 17 17 16 18 18 14 23 15 16 14 13 13 15 19 13 14 18 21 23 24 22 20 20 19 18 17 17 18 18 15
24 27 27 29 29 31 32 33 32 33 30 24 21 22 22 25 20 19 22 22 27 30 29 24 18 19 20 18 19 13 12 15 13 18 19 15 12 11 23 20 18 22 24 19 17 17 12 15 17 18 16 14 15 15 17 16 13 15 16 15 17 16 19 15 20 22 20 13 15 20 23 24 15 12 18 20 24 22 23 23 21 20 19 18 20 17 17 15
24 26 27 28 30 32 33 33 34 30 31 21 19 19 19 17 16 15 17 23 24 20 14 19 20 22 20 25 12 11 12 14 12 13 12 10 15 18 11 13 13 16 10 15 13 17 17 19 19 15 14 13 14 14 15 16 17 16 18 18 19 20 19 17 16 16 21 15 15 19 21 19 13 13 13 23 22 21 22 24 23 23 19 18 18 16 16 15
23 25 27 29 29 32 34 35 34 30 23 20 17 17 18 16 14 16 15 22 25 23 21 18 15 11 13 10 11 9 13 11 14 12 20 10 13 25 15 19 17 16 15 15 19 13 18 12 16 17 16 11 14 14 16 16 17 19 17 18 18 16 15 17 14 17 14 14 17 17 22 19 14 14 15 13 19 21 24 24 22 20 21 19 16 15 16 15
23 24 26 27 29 32 36 36 33 17 19 19 21 15 15 14 15 16 17 16 18 18 20 18 17 15 15 11 13 16 18 11 13 12 18 14 16 15 14 14 18 18 24 18 14 19 16 15 11 12 9 13 19 15 15 16 17 17 18 18 19 18 14 14 14 12 19 21 20 20 25 27 15 18 18 16 16 22 23 26 21 19 20 20 17 15 16 14
23 23 24 27 29 32 38 32 15 17 22 23 10 15 15 14 11 14 17 17 22 21 15 13 14 16 19 11 15 21 9 12 15 13 14 14 17 18 17 24 15 18 14 15 20 22 21 11 11 15 16 14 16 17 15 16 18 17 15 16 18 18 19 16 17 15 17 20 17 18 25 24 15 18 22 16 25 24 21 28 20 17 19 17 17 16 13 13
23 23 23 26 28 30 39 16 13 29 28 20 21 18 16 14 14 11 15 14 11 19 10 16 12 13 15 12 9 21 11 17 13 21 17 13 21 18 18 19 20 16 14 11 18 21 17 11 10 13 15 16 16 17 12 10 14 16 13 14 14 18 18 16 18 18 19 22 14 19 25 23 15 20 16 19 21 18 22 24 25 20 17 16 17 15 15 13
22 23 24 23 22 25 26 13 22 28 21 20 17 17 15 14 12 12 16 12 11 15 13 21 13 16 13 11 19 9 16 10 12 17 14 17 16 12 18 14 14 16 17 18 15 19 16 14 14 16 16 16 14 15 12 13 16 20 10 13 13 14 16 18 20 21 22 17 19 19 24 23 22 17 12 24 20 17 17 18 24 32 14 14 14 15 12 13
22 23 23 23 24 16 17 25 26 23 21 19 18 17 16 13 14 11 14 10 17 13 11 17 13 14 13 9 16 18 17 10 15 12 13 13 14 16 17 16 16 12 17 12 17 16 13 15 16 12 13 17 14 12 11 14 18 14 11 16 17 15 17 18 19 21 21 18 23 21 18 20 21 11 12 16 18 14 15 14 13 18 14 12 12 14 12 13
21 23 23 22 24 33 17 18 18 23 21 20 20 18 19 13 15 15 10 13 13 20 18 13 14 15 14 14 15 17 18 10 15 12 16 16 16 18 19 16 19 17 15 19 18 14 14 16 14 14 14 14 12 16 14 15 20 13 13 16 15 18 20 21 22 20 21 23 22 20 17 25 16 19 12 11 15 12 14 14 14 12 9 10 11 10 11 11
21 22 22 19 24 16 8 14 18 21 24 20 18 18 15 13 14 12 12 9 10 9 13 13 11 11 12 16 18 15 12 14 15 17 22 20 13 13 23 9 17 18 16 22 20 17 19 20 22 18 16 14 13 13 15 14 17 16 15 15 19 19 20 20 20 22 20 22 23 18 19 13 22 12 13 14 14 14 15 12 12 10 9 8 9 12 11 11
23 23 21 15 21 20 21 21 15 17 15 17 17 18 15 12 11 13 9 13 16 16 19 7 14 13 15 11 13 10 14 15 17 14 16 12 19 15 14 19 16 16 16 24 18 19 20 27 19 19 16 20 14 20 17 17 15 15 20 20 19 20 18 20 20 18 21 22 16 14 19 17 18 10 11 15 12 14 14 13 12 9 8 9 7 10 9 10
24 25 24 22 24 19 15 18 21 21 17 16 16 16 11 10 16 14 11 15 17 10 8 9 12 13 14 15 13 14 18 14 12 15 15 15 14 13 13 16 11 14 11 17 16 19 15 13 20 20 24 21 20 20 17 19 14 16 17 19 20 17 13 21 20 22 19 21 12 13 15 21 16 13 13 10 12 12 10 12 13 11 10 10 9 7 10 9
25 27 30 27 17 16 23 26 22 18 14 15 17 14 13 12 9 11 17 10 9 10 12 11 15 15 14 14 15 13 7 13 10 12 10 18 16 12 17 18 16 16 19 13 12 11 13 14 17 15 23 18 16 19 11 14 13 16 16 15 15 17 18 17 15 14 16 17 13 18 17 17 12 9 10 11 11 10 9 9 9 10 9 7 8 9 9 11
26 27 28 21 20 22 19 14 15 15 15 14 15 13 14 13 12 11 13 10 9 8 12 10 12 14 17 17 13 8 16 12 13 14 10 12 12 12 18 24 18 13 13 9 10 12 10 15 14 21 16 13 18 15 13 14 13 15 11 10 11 12 17 15 9 13 14 12 16 14 12 11 8 14 14 11 8 8 9 10 9 9 9 9 8 12 12 10
31 30 24 21 18 21 23 20 15 11 12 14 14 13 11 15 14 17 12 12 16 10 12 10 15 15 12 12 7 13 13 14 8 10 8 11 11 8 7 9 11 9 10 16 7 14 14 11 13 20 13 11 16 13 12 14 17 12 10 16 18 14 15 11 11 18 17 14 15 14 10 7 11 9 12 11 10 8 8 9 9 8 7 8 8 8 8 8
24 20 20 23 18 14 18 17 11 10 11 15 15 12 14 14 18 14 14 11 12 12 16 17 18 10 16 11 14 12 13 15 9 13 9 12 13 11 10 7 11 13 15 14 8 11 13 10 8 19 21 15 16 15 12 13 14 14 12 13 18 12 11 11 13 15 11 13 24 10 14 14 16 10 12 11 11 11 11 11 10 9 7 8 7 8 8 8
21 24 21 17 19 15 15 14 14 10 13 15 15 16 13 17 17 17 13 15 14 12 13 14 14 10 10 15 9 10 9 13 12 12 13 10 12 10 9 13 25 23 20 17 14 14 14 14 16 19 17 22 16 12 14 14 15 20 18 13 19 11 14 17 15 9 14 17 16 15 13 13 14 15 7 11 13 12 13 11 11 8 7 7 6 5 8 10
25 21 23 23 24 15 14 13 12 10 14 15 16 10 20 26 22 16 11 12 9 10 12 14 9 8 11 12 12 15 12 14 12 10 12 10 12 12 12 12 22 19 13 15 14 11 15 18 13 19 21 18 18 14 16 17 17 16 13 9 15 10 13 17 14 17 17 16 17 17 17 14 13 12 8 13 17 15 12 13 10 9 8 7 7 7 8 9
21 20 23 14 14 10 9 15 9 14 14 18 18 16 17 24 17 11 13 18 9 11 13 12 12 9 11 12 12 11 13 14 17 13 12 9 11 10 17 12 12 16 11 11 12 9 8 11 14 14 13 10 15 14 10 11 13 9 12 15 12 16 17 17 15 16 19 16 12 10 13 13 17 14 18 17 16 14 13 12 11 10 8 7 6 8 8 7
20 19 14 13 15 15 14 14 12 15 18 16 15 20 17 22 17 14 18 8 10 11 8 11 7 11 10 12 16 14 13 14 11 11 12 11 15 13 14 8 14 9 10 11 13 15 12 8 12 10 10 9 9 9 10 8 8 12 11 13 12 21 13 14 10 13 15 10 13 18 16 16 15 11 13 15 14 16 15 14 12 10 10 8 8 8 8 7
20 21 19 10 9 12 14 14 15 18 20 19 19 19 16 15 18 12 13 11 12 6 15 12 14 13 12 14 11 10 14 12 14 14 10 11 16 10 8 13 9 11 11 13 13 12 10 11 13 18 13 8 11 14 8 11 14 12 13 11 13 7 7 10 13 11 13 12 18 16 19 15 16 8 12 15 19 16 14 14 13 12 11 8 8 9 12 11
20 19 16 12 11 10 15 16 21 16 22 21 17 14 13 9 13 13 8 12 9 10 10 13 8 10 13 15 12 11 14 15 12 12 7 12 9 12 12 13 13 12 14 12 12 8 11 12 16 16 15 15 22 21 20 20 16 13 12 13 17 10 12 8 12 12 11 15 15 15 18 14 11 12 18 17 18 16 14 14 13 13 12 9 9 12 11 10
20 24 15 20 17 12 14 19 18 16 19 25 19 20 17 13 11 11 12 10 11 9 8 10 9 8 7 11 10 16 11 14 18 16 10 8 11 11 12 11 12 14 12 10 11 12 8 9 11 15 13 20 27 15 19 21 18 12 15 13 22 14 13 14 11 11 15 8 7 13 13 15 9 8 13 15 13 14 14 14 15 13 12 10 10 11 12 11
22 24 19 13 11 10 16 15 14 13 16 18 16 18 14 11 11 8 11 10 15 6 9 9 10 9 11 8 12 15 10 11 8 9 8 10 15 16 15 17 8 14 9 13 12 12 12 9 16 17 15 13 14 14 16 13 18 8 12 10 12 10 10 11 12 17 18 9 12 11 15 9 11 9 10 12 13 14 15 15 16 14 12 10 9 9 8 12
25 21 23 18 15 14 19 18 18 14 16 17 21 16 13 9 11 10 10 12 11 13 7 14 14 8 10 8 12 12 13 9 17 10 11 6 9 17 14 13 9 13 14 15 9 14 13 12 13 15 15 15 17 17 15 10 11 9 6 8 10 10 9 11 6 12 12 9 14 10 11 13 11 11 11 12 13 13 14 16 15 14 13 13 9 8 9 9
21 15 15 22 21 19 21 17 19 18 17 16 11 17 15 17 16 14 11 16 11 12 16 12 12 15 13 10 9 10 12 11 9 9 10 11 13 14 14 13 10 9 14 12 10 9 10 12 11 10 11 13 13 12 10 9 11 9 7 7 9 9 15 12 10 11 14 11 13 12 9 7 8 12 15 15 16 15 16 17 18 17 14 14 12 10 9 8
22 22 15 14 21 17 17 18 21 20 18 13 15 12 14 14 9 10 13 15 10 16 15 13 13 12 9 9 13 15 12 13 13 11 9 11 11 17 12 12 12 11 10 10 11 12 13 14 13 11 10 12 12 10 8 8 10 10 10 9 9 10 11 14 12 13 14 12 12 13 10 13 15 19 16 16 17 16 17 16 18 17 16 17 17 16 15 14
20 19 21 11 12 13 15 15 20 18 21 16 18 16 16 13 12 13 11 12 10 12 14 14 18 14 12 11 9 14 11 14 12 11 9 11 12 10 15 10 14 12 8 11 10 10 11 11 12 10 13 10 11 11 9 10 8 10 9 7 9 8 9 13 11 15 10 12 16 12 14 13 14 17 18 18 20 20 18 17 20 16 15 16 16 16 17 15
23 24 23 15 16 15 18 14 15 15 15 15 18 14 16 15 17 17 13 11 10 15 15 11 13 13 14 12 14 16 13 14 11 10 13 8 9 12 13 14 14 14 10 10 10 9 12 14 11 11 14 14 12 13 12 11 9 9 9 9 9 9 11 13 13 10 15 11 11 12 16 19 14 11 16 16 13 17 17 16 16 15 15 18 18 16 15 17
15 12 17 21 19 21 18 16 15 15 18 10 9 15 20 16 17 17 15 11 11 14 12 18 14 12 12 13 12 16 12 13 14 12 8 7 8 11 14 12 11 15 12 11 8 6 9 11 8 12 15 15 17 14 13 13 11 12 13 13 10 9 11 11 10 10 10 12 9 9 10 15 15 12 14 18 18 19 17 18 17 16 15 17 17 17 16 18
21 18 17 20 21 20 18 18 18 17 17 16 17 15 16 17 18 13 16 13 14 15 14 16 13 11 13 12 10 12 12 13 12 14 14 13 13 9 11 10 12 11 11 10 8 10 8 14 13 13 13 14 14 9 13 12 12 14 12 13 14 10 11 9 15 12 8 11 9 9 9 17 14 16 13 14 18 20 19 19 16 16 16 18 18 17 16 17
23 20 17 18 21 13 21 19 20 20 18 19 20 15 18 14 16 16 16 11 13 14 19 17 12 15 12 12 14 12 9 11 12 13 16 17 16 11 12 13 16 14 10 12 9 14 12 15 13 11 15 14 13 8 12 10 11 12 15 22 20 12 8 7 10 12 12 10 6 9 15 17 16 15 15 16 18 17 18 20 18 17 17 18 20 18 17 16
Wind_Speed
15 16 17 19 19 19 18 19 19 18 18 18 18 17 16 15 15 15 14 14 14 14 14 15 15 15 15 16 17 16 16 4 6 3 4 6 3 3 2 5 4 3 2 0 3 5 4 5 6 5 3 2 2 0 2 1 1 1 1 3 2 5 8 1 2 2 4 4 8 8 6 8 8 7 4 3 16 16 18 16 11 20 16 15 15 16 16 15
17 18 18 19 19 18 18 18 18 17 16 16 17 17 16 15 14 14 14 13 14 14 14 14 14 14 15 15 16 14 12 3 4 5 11 4 5 3 3 4 2 1 2 2 3 3 3 4 4 5 2 1 1 1 0 2 2 3 1 3 7 5 3 3 0 4 3 3 5 7 9 6 4 1 3 6 10 15 17 10 17 15 14 17 16 15 15 15
17 17 18 19 18 17 17 18 17 17 18 18 17 16 15 14 14 12 12 12 12 13 14 14 13 14 14 14 14 12 8 3 2 4 6 3 6 4 4 4 1 3 1 1 1 1 1 3 3 4 2 1 1 3 0 4 1 4 3 4 7 6 3 2 3 2 2 1 5 7 7 7 9 3 1 6 9 15 16 11 13 18 17 16 14 14 13 13
16 17 19 18 17 17 17 17 18 17 17 17 18 17 16 16 14 14 13 14 13 13 13 13 13 12 13 14 11 9 3 2 1 2 2 3 3 4 3 1 1 2 2 2 1 0 1 3 5 2 2 2 3 1 1 5 0 2 3 4 6 4 2 1 4 3 3 3 2 4 4 8 8 4 3 3 11 7 7 14 17 16 16 15 15 15 14 13
16 16 17 17 16 16 16 17 17 17 17 17 16 15 15 15 14 12 11 12 12 12 12 12 12 13 12 11 10 4 2 3 1 2 2 6 5 4 4 4 3 1 1 0 1 1 3 3 2 2 3 3 1 0 3 3 3 1 5 6 7 5 3 2 1 2 1 4 6 5 8 3 5 4 5 8 8 6 5 8 17 18 16 17 14 13 11 12
16 16 16 17 17 17 17 17 18 17 17 18 17 17 15 14 13 13 12 11 11 11 11 11 12 12 11 11 5 0 1 1 2 2 5 7 5 4 7 3 3 1 2 3 1 4 3 1 2 2 1 2 2 3 4 5 2 4 4 4 5 5 3 0 1 3 4 2 4 3 1 1 5 1 3 7 7 3 6 14 16 17 17 15 13 11 10 11
15 16 16 17 17 16 17 17 17 18 17 17 17 16 15 15 14 13 11 10 10 11 10 11 10 12 12 10 1 0 2 5 2 6 7 6 6 6 7 5 2 1 2 3 3 3 3 7 3 3 1 2 4 3 7 3 4 5 6 3 6 3 3 2 1 4 2 7 3 1 2 6 5 5 3 4 2 9 14 14 13 13 12 12 11 8 9 6
16 16 16 17 17 17 17 19 18 17 17 17 17 16 16 14 13 13 12 10 9 10 10 9 9 9 10 1 1 1 1 4 9 3 5 4 6 7 4 2 1 2 1 4 1 2 3 3 5 1 3 4 3 4 2 4 4 7 8 5 3 1 1 1 1 4 3 4 3 6 4 0 2 1 2 3 5 15 11 11 13 11 10 8 8 7 5 4
17 16 16 17 17 17 18 20 20 18 18 19 17 17 17 15 13 12 12 10 8 9 9 8 7 7 3 0 1 4 1 4 5 3 4 2 7 6 4 3 5 3 1 1 5 3 1 3 4 3 2 1 2 3 7 6 5 6 6 1 1 1 1 2 4 3 3 2 3 2 1 1 3 3 2 3 5 12 14 12 12 11 11 9 7 6 4 2
17 16 16 16 18 20 20 21 21 22 22 20 18 18 17 15 13 12 12 10 8 6 7 7 5 3 1 0 2 3 5 4 1 4 7 7 7 4 2 7 3 2 0 5 2 3 4 5 2 4 3 2 1 2 4 5 2 2 2 2 3 3 0 2 3 1 0 0 1 3 2 1 2 3 1 4 6 23 19 14 11 13 11 9 7 5 5 3
18 19 21 21 19 18 19 21 21 21 20 19 19 18 17 17 13 10 10 9 6 6 5 5 3 1 0 0 2 2 6 5 3 4 7 8 5 3 6 5 4 3 4 5 4 4 4 6 1 2 3 2 4 5 4 2 2 2 1 2 4 6 4 1 1 1 1 1 3 5 1 1 2 1 4 4 12 23 20 14 14 13 10 8 7 6 3 3
19 18 18 20 20 22 22 20 22 23 21 18 17 17 18 17 13 10 9 6 6 2 1 0 1 1 0 1 3 6 5 5 4 5 6 5 3 6 7 7 3 3 1 4 5 5 1 2 5 3 1 2 3 4 1 5 4 1 4 1 4 5 4 5 1 1 2 2 2 2 4 2 2 3 3 4 16 22 20 16 14 13 10 8 7 6 4 4
20 19 20 19 23 21 19 19 19 22 19 16 19 19 16 15 14 11 8 5 3 2 2 1 1 2 1 4 6 7 4 5 5 7 5 4 4 5 4 4 5 3 4 3 4 5 4 4 4 5 0 1 3 1 4 2 5 3 4 1 6 6 6 8 3 1 2 1 5 4 1 6 6 5 5 7 20 20 17 14 13 10 10 8 6 5 4 4
20 19 22 21 20 20 20 19 21 18 18 20 20 19 17 14 12 8 6 6 3 4 3 3 2 0 1 4 5 3 8 5 4 4 7 4 4 5 4 6 5 6 4 2 5 4 5 3 2 0 0 2 2 4 5 3 2 1 1 3 0 3 4 6 1 0 1 1 6 4 3 4 1 3 2 11 21 21 15 12 11 10 9 7 6 6 4 3
18 20 20 23 21 21 21 21 19 20 21 19 21 21 21 17 10 7 6 3 5 5 6 3 0 1 2 5 6 7 9 6 5 8 7 5 4 4 7 6 8 6 4 1 1 2 1 2 3 3 3 1 2 3 5 4 3 2 3 4 3 2 7 6 4 1 5 1 2 12 5 3 1 2 3 14 18 20 15 12 12 10 9 8 6 6 5 4
20 20 20 20 21 21 22 22 24 22 22 23 23 25 21 14 10 8 5 5 7 8 3 1 0 0 1 4 1 6 2 4 9 12 5 6 5 5 8 7 4 5 4 3 2 1 3 2 1 1 2 5 4 2 5 7 5 4 2 3 2 1 5 7 5 5 8 4 1 4 6 1 0 2 6 17 19 18 15 12 11 12 11 9 6 5 3 4
21 20 20 21 22 22 22 23 24 24 23 23 25 24 20 6 7 5 6 6 4 3 2 1 2 1 1 3 3 1 1 5 2 1 2 5 7 6 1 1 3 6 4 5 4 3 2 1 1 2 2 1 0 3 4 4 5 4 1 3 3 4 3 3 5 2 7 6 2 4 6 4 5 2 13 17 20 18 15 12 12 11 9 8 8 7 7 7
19 21 22 21 23 23 22 21 23 24 24 24 21 17 17 15 6 3 4 5 1 3 1 1 1 2 4 2 2 3 3 3 4 6 7 3 5 2 1 1 1 0 1 3 1 0 1 1 1 2 4 3 2 3 3 3 3 2 3 1 6 2 5 9 4 4 6 4 6 4 6 5 6 6 13 17 19 19 16 13 12 11 10 9 9 9 9 8
18 20 22 22 23 23 22 22 20 24 23 23 16 15 4 2 1 3 4 0 2 3 2 1 1 1 0 4 7 4 3 4 1 2 3 3 0 0 1 1 1 0 3 0 4 2 1 1 5 4 5 7 5 3 6 7 3 5 3 3 3 3 4 4 10 4 10 4 5 8 8 8 4 8 11 14 17 18 14 12 11 10 10 9 9 8 8 8
18 20 21 22 23 23 24 24 22 24 22 13 11 8 6 9 7 3 4 3 2 4 6 6 4 5 7 11 2 2 1 4 1 2 1 1 1 1 4 1 2 3 2 2 1 2 2 1 2 4 6 7 8 4 6 7 7 5 2 1 3 3 6 4 1 6 9 4 1 1 6 7 5 10 12 14 14 15 15 13 11 10 10 9 9 10 9 8
19 20 21 23 23 24 24 25 23 22 16 2 3 4 3 2 3 4 6 10 5 5 6 10 9 8 9 5 3 1 0 1 2 1 2 0 4 2 3 1 2 3 2 3 2 2 6 0 6 8 8 6 8 6 5 3 2 3 1 3 7 3 5 5 1 2 3 4 1 5 8 7 5 5 12 13 16 15 15 13 12 12 11 10 13 11 9 7
18 20 21 23 23 24 24 24 24 21 7 2 2 3 3 1 1 5 0 5 10 3 8 11 7 7 8 14 8 4 4 1 3 3 2 3 1 1 2 2 0 3 4 2 1 2 1 5 7 5 7 6 1 3 4 4 3 4 2 2 3 6 4 5 5 4 1 7 1 2 8 7 4 5 5 10 11 8 9 12 11 13 11 10 10 10 9 7
18 19 21 22 23 24 25 24 24 17 3 5 6 3 2 5 2 1 1 1 5 5 5 5 2 4 7 4 1 4 1 0 2 3 1 2 2 0 1 3 4 4 4 3 1 1 1 4 8 6 2 4 3 3 5 6 4 1 5 5 3 3 5 4 5 5 4 4 1 2 9 1 6 9 9 5 9 8 8 11 10 10 13 11 10 9 9 8
17 18 20 20 23 24 26 25 20 5 7 7 4 2 4 3 3 5 2 2 3 7 3 4 4 2 3 0 1 1 3 2 1 0 2 2 2 1 2 0 4 4 4 5 3 1 2 5 3 1 4 4 3 4 4 5 6 3 1 0 1 3 1 1 2 5 5 5 4 5 6 3 4 9 6 6 7 11 8 10 8 7 9 9 8 9 10 9
17 17 18 20 22 25 29 21 5 4 6 5 1 8 7 4 4 1 3 3 2 4 4 2 2 0 2 3 1 1 0 2 1 2 1 5 2 3 0 0 1 2 3 1 4 4 2 3 5 5 4 5 4 5 4 2 3 4 1 1 1 1 1 1 1 3 3 2 2 5 3 3 5 6 6 3 6 8 3 9 8 8 8 7 9 9 8 7
17 16 17 18 21 24 28 4 3 7 9 1 2 7 9 7 5 2 2 2 2 4 3 2 1 1 0 1 0 2 4 1 1 1 2 4 3 1 0 1 1 3 6 0 1 1 0 5 6 3 2 3 4 2 3 3 1 1 1 0 3 4 4 4 4 5 2 0 2 1 5 3 4 4 2 2 7 6 2 5 6 6 7 7 8 8 9 8
17 16 16 16 17 19 11 2 3 8 2 3 7 8 8 8 4 3 2 3 2 1 0 1 2 0 3 1 1 2 3 2 3 1 1 2 2 1 2 3 3 1 2 0 3 3 4 7 8 7 6 6 5 5 3 3 3 2 4 3 5 7 6 3 4 4 0 3 4 3 4 3 3 3 0 0 6 4 4 2 3 4 6 6 6 8 8 7
17 16 15 15 15 11 3 5 9 6 4 5 7 9 9 6 2 4 3 2 0 2 1 1 0 1 1 1 4 1 4 2 2 2 1 1 4 3 2 1 1 1 3 4 0 4 1 5 5 5 4 4 4 3 6 3 1 4 5 5 4 3 1 2 4 3 1 4 6 6 1 3 1 3 3 2 9 2 3 2 2 3 4 6 7 8 7 6
16 16 15 13 14 15 2 3 4 7 5 4 9 9 7 3 4 4 3 2 1 0 2 1 4 1 3 1 2 1 2 0 2 3 2 2 1 4 1 2 2 5 5 5 2 3 2 2 4 2 3 1 3 5 6 5 4 3 3 4 4 4 3 4 3 5 4 4 4 5 1 2 1 3 2 1 4 5 4 3 4 3 4 5 6 6 7 6
16 16 14 13 11 0 1 2 7 9 7 9 9 10 4 1 2 2 2 2 1 0 1 1 1 2 2 4 2 3 2 1 1 1 2 1 5 5 1 1 2 3 4 3 3 2 3 5 6 1 1 0 2 3 1 4 2 3 4 3 6 6 4 4 3 2 4 1 2 5 3 5 2 5 7 6 4 6 6 2 1 2 4 4 6 7 6 6
17 18 15 10 5 3 3 6 8 7 7 6 9 7 2 5 3 3 2 3 1 1 1 1 1 3 1 1 2 3 1 1 3 1 3 3 3 5 3 2 7 4 5 8 4 9 8 5 2 1 2 2 1 4 4 3 2 4 1 0 5 7 7 4 4 3 1 2 2 4 4 2 4 1 4 5 4 5 8 8 6 5 5 4 4 5 5 5
18 19 18 8 5 1 2 5 4 4 8 9 7 4 3 1 4 2 0 0 1 2 1 2 1 1 1 3 1 1 1 1 0 1 1 0 4 3 3 3 1 3 3 3 4 6 6 3 2 6 2 3 1 3 6 7 7 7 5 7 2 3 3 2 2 2 2 5 1 3 5 3 0 2 2 0 3 5 4 6 7 5 4 4 4 5 4 4
18 20 22 10 6 4 8 13 8 8 7 9 3 2 4 4 1 2 2 1 1 1 1 2 2 1 1 2 2 2 2 3 2 0 3 1 5 2 2 3 4 3 2 2 1 5 6 4 4 5 5 2 3 1 3 4 4 6 3 3 3 0 1 2 3 1 3 5 3 2 2 1 2 3 3 3 3 4 4 4 4 5 5 5 4 4 5 5
19 19 11 4 6 9 8 4 6 3 5 5 1 5 6 4 1 5 0 0 1 1 1 0 3 3 1 1 2 1 0 2 1 0 2 0 4 0 1 3 3 3 5 1 0 0 3 3 3 2 1 3 2 1 2 3 1 0 2 2 5 5 3 2 2 4 3 5 5 5 0 2 2 2 1 6 4 4 5 5 3 4 5 5 4 4 5 5
21 16 9 9 4 7 12 9 7 1 2 3 6 4 3 2 2 1 0 1 1 1 0 2 0 0 4 3 1 2 0 1 3 1 2 1 1 1 0 0 1 5 3 3 2 1 3 4 7 4 4 1 1 2 1 2 4 1 1 5 5 3 5 1 4 3 2 1 3 1 1 1 3 2 0 1 3 5 5 5 5 5 4 4 4 4 4 4
13 8 6 5 2 3 7 5 3 3 1 5 5 2 2 4 1 1 1 2 0 0 2 4 4 4 2 4 2 3 4 2 3 3 2 2 1 1 1 1 1 2 3 1 2 0 3 1 3 6 3 0 0 0 2 2 1 3 2 0 2 3 5 3 2 0 3 4 4 1 0 2 2 2 1 1 4 3 4 4 4 4 5 4 4 4 4 4
9 9 5 3 3 4 5 5 5 6 3 4 3 1 5 2 5 2 2 2 2 2 2 2 2 2 1 2 2 5 3 4 1 2 1 0 1 1 1 1 3 1 5 4 2 3 2 6 5 2 2 1 1 2 2 2 3 3 2 3 1 4 4 4 3 2 1 2 4 0 4 1 3 3 2 3 5 4 4 4 4 3 4 5 4 4 4 3
8 5 6 7 7 4 4 6 7 2 3 3 1 6 1 1 2 2 0 1 2 3 3 2 1 5 0 1 3 1 3 3 4 2 1 1 1 1 1 1 2 4 4 3 3 2 3 3 3 1 2 6 3 3 6 2 1 4 5 4 2 1 0 3 4 0 0 1 2 1 2 2 7 5 3 7 7 6 5 4 5 4 4 4 4 3 3 3
3 1 5 4 3 6 4 9 5 4 3 2 2 1 3 4 4 0 3 4 1 3 3 0 2 0 2 1 1 1 1 2 1 0 1 1 1 2 2 2 1 4 2 7 2 1 2 1 4 3 0 3 3 4 1 3 6 3 3 2 0 4 2 2 4 3 5 3 1 3 1 4 7 5 10 11 10 8 7 6 6 6 5 5 4 3 2 3
5 3 3 3 1 7 9 8 5 4 3 1 3 3 2 1 1 1 2 3 0 2 1 1 0 1 1 1 1 1 2 1 1 1 2 1 0 1 1 2 1 1 1 4 3 1 0 2 1 3 4 2 1 0 1 3 0 1 1 0 0 1 2 3 0 2 2 2 3 3 2 6 7 5 8 9 9 10 10 9 6 6 5 4 4 3 2 1
2 1 5 4 5 1 7 6 3 2 1 3 1 2 3 2 0 1 4 2 2 1 3 2 2 1 3 1 2 1 0 1 1 1 1 0 1 1 3 2 1 1 2 4 5 1 1 1 1 3 4 0 3 2 2 6 4 1 4 4 7 4 1 1 4 1 1 2 2 3 7 6 7 2 6 6 7 9 8 10 7 5 5 5 4 3 3 1
1 0 3 2 5 3 7 1 1 2 2 3 3 2 2 2 3 3 2 1 3 1 1 3 1 2 2 1 2 0 1 1 0 1 1 2 1 3 2 1 2 1 2 1 1 1 3 2 2 2 3 3 5 5 5 1 3 2 4 3 3 3 5 3 2 4 1 4 2 2 1 6 5 3 4 5 6 7 8 8 7 6 6 5 4 4 3 3
1 6 6 7 4 1 3 0 2 0 3 4 3 6 6 4 4 4 2 0 1 1 1 1 3 2 1 1 1 2 2 0 2 1 2 1 1 5 5 4 4 3 6 1 2 1 2 1 0 4 4 5 3 3 2 2 2 2 1 1 3 2 4 7 4 4 4 1 0 1 1 4 3 1 3 4 5 5 6 8 10 6 5 5 5 4 4 2
2 4 7 5 0 3 2 4 3 3 3 3 2 5 6 4 4 2 1 2 2 0 2 1 2 1 2 1 1 1 1 1 1 3 1 1 0 6 4 3 2 1 3 4 3 3 1 2 3 1 2 4 3 4 3 4 2 1 1 3 2 2 3 1 4 2 1 4 6 5 6 2 2 0 2 3 3 5 7 5 10 8 5 5 5 5 4 3
4 4 4 7 3 4 4 4 4 3 2 2 2 6 5 3 3 4 5 2 1 2 2 1 3 2 0 1 2 1 1 4 0 2 2 3 2 2 3 2 1 1 1 5 6 3 2 2 2 0 1 0 1 1 2 3 4 2 1 1 3 4 4 2 1 1 2 2 4 2 3 6 4 1 3 4 4 4 5 7 4 7 8 8 5 5 5 4
1 1 4 3 1 1 2 2 2 2 2 2 2 6 3 3 2 3 3 0 2 1 2 1 0 3 1 1 1 1 1 1 3 1 1 2 2 1 2 3 6 1 5 8 5 4 1 0 2 4 4 5 6 5 5 1 0 0 2 3 4 4 4 3 4 3 5 3 5 6 4 1 2 3 4 6 6 8 7 5 7 5 5 5 5 5 5 5
2 2 1 1 4 1 2 0 2 1 4 3 1 2 2 3 2 0 1 1 1 3 0 3 1 1 1 3 2 1 2 1 0 1 3 4 3 1 0 5 5 4 5 2 5 4 2 1 3 3 4 7 7 5 3 4 2 2 3 4 5 5 5 6 5 5 4 4 6 5 5 3 7 5 6 8 8 8 8 8 7 6 6 7 5 4 5 4
0 5 1 1 1 2 4 5 2 4 6 2 4 2 4 4 0 2 3 1 1 1 3 3 1 3 4 3 3 2 2 1 0 1 1 1 3 1 0 1 3 5 3 1 2 3 4 1 3 3 4 6 6 7 5 2 2 3 4 4 5 5 5 7 6 8 5 5 8 4 5 5 5 9 11 11 12 12 11 11 11 10 6 4 4 5 6 5
3 3 4 3 0 2 1 5 7 7 7 5 3 5 5 6 7 4 4 1 1 2 3 2 4 6 5 3 3 3 3 0 2 1 1 0 1 1 0 2 1 3 2 1 1 1 3 2 3 2 3 4 6 4 3 4 3 2 3 5 6 6 7 9 8 7 9 6 7 7 6 11 8 6 10 10 8 9 9 6 4 5 7 7 7 6 6 6
4 2 4 4 3 4 3 2 2 3 3 3 2 4 3 4 4 1 0 3 1 3 1 3 5 5 3 2 4 3 5 7 6 4 2 2 2 1 2 3 1 1 1 1 1 3 1 4 3 1 2 5 6 4 6 9 6 5 6 7 7 5 6 7 4 5 5 5 4 4 6 9 6 4 5 4 6 5 5 7 9 9 8 9 8 8 8 8
3 3 2 5 5 4 2 1 2 3 3 3 0 4 2 2 4 4 4 7 7 5 6 11 9 4 1 1 2 5 6 5 5 5 5 4 1 4 3 3 4 2 1 2 1 1 2 3 2 2 2 5 4 2 2 2 7 6 5 7 9 6 5 4 4 6 4 6 4 1 2 6 5 1 3 6 8 10 11 10 9 8 9 9 10 10 9 9
2 4 3 2 4 4 3 2 0 2 1 3 0 3 4 6 7 3 4 5 6 9 11 11 7 6 1 2 4 3 4 6 6 5 6 6 5 3 4 3 7 6 3 3 2 4 3 3 1 0 0 3 8 1 6 2 2 3 8 13 13 8 5 3 3 3 7 6 3 4 8 7 6 4 6 5 10 10 9 10 9 9 10 11 12 12 11 10
Wind_Direction
349 347 346 347 346 346 344 342 340 341 340 339 337 337 337 336 337 336 338 338 333 333 328 327 324 321 319 324 329 330 331 338 341 352 341 248 145 111 140 130 170 183 275 63 20 37 354 350 333 323 349 41 271 18 236 237 173 87 202 159 249 214 256 186 59 355 298 357 314 347 330 62 42 359 348 20 72 87 80 72 65 58 69 92 99 110 124 134
349 350 348 347 346 345 343 341 339 337 336 336 336 336 335 335 336 337 338 336 334 329 327 325 322 317 321 324 329 333 335 313 326 299 252 192 142 153 227 231 179 267 252 43 46 36 23 335 347 355 331 276 296 216 108 272 137 153 200 129 227 212 228 102 95 350 352 311 293 353 357 19 28 68 340 65 61 90 83 82 87 80 86 98 114 130 136 137
352 349 350 348 345 342 340 336 332 332 335 334 334 330 329 327 330 331 332 330 328 330 325 320 318 316 319 324 327 336 345 314 301 280 280 116 142 194 235 255 63 273 232 142 128 96 170 264 314 349 293 252 304 228 42 258 129 222 138 205 238 236 269 50 59 325 273 130 355 14 3 15 337 360 348 83 93 99 109 109 96 113 127 132 133 136 139 141
346 348 351 349 343 340 337 332 331 330 332 330 333 332 330 328 327 330 329 328 329 327 323 317 314 317 319 319 327 329 308 336 355 263 287 209 179 220 237 315 226 213 94 113 170 154 212 258 264 187 273 219 289 182 259 263 138 270 125 190 236 250 327 352 352 312 291 61 73 2 346 28 347 341 41 64 76 68 118 138 138 138 140 142 148 149 156 151
344 344 347 343 339 337 333 330 328 330 327 327 328 326 325 326 329 325 324 327 328 324 319 315 315 316 318 311 322 346 9 49 273 250 239 182 197 229 250 213 189 223 106 157 303 215 213 228 223 203 163 221 287 58 241 249 208 16 206 209 218 264 268 251 231 186 343 343 81 33 29 333 312 20 18 69 87 96 147 156 137 139 138 142 152 159 151 156
339 339 337 334 333 333 332 331 330 328 325 329 326 329 324 323 320 320 327 328 326 319 316 314 315 319 312 309 307 246 66 76 254 271 160 195 193 234 245 233 157 101 51 35 33 301 329 23 80 20 192 172 204 183 262 213 163 234 280 253 231 233 231 187 220 119 87 31 45 55 322 287 19 340 10 62 64 64 129 144 141 142 145 146 146 151 157 162
337 337 334 331 329 326 328 329 328 328 326 325 327 326 321 325 321 323 322 323 317 316 315 314 315 318 321 311 150 116 126 246 285 251 150 196 211 229 243 240 150 44 36 357 1 1 12 331 20 258 202 209 260 219 252 250 179 207 243 246 255 175 214 214 227 134 108 102 87 184 78 31 23 18 349 44 27 107 138 139 137 128 126 132 133 143 146 150
335 334 332 329 325 324 323 333 331 326 325 329 326 322 323 319 320 320 321 320 316 312 313 313 315 320 338 347 50 357 84 259 245 254 171 167 236 240 243 274 176 93 56 249 285 314 15 304 283 249 234 175 221 174 260 259 200 209 246 217 254 230 195 227 227 72 79 110 143 59 54 272 81 269 12 341 41 100 118 117 116 114 110 108 114 114 104 110
332 331 328 326 324 321 327 333 332 327 332 331 325 324 323 319 317 318 318 314 312 310 308 311 322 323 307 300 93 7 311 237 217 159 137 197 248 252 131 279 164 170 200 262 209 217 115 273 265 195 268 270 280 308 281 256 281 219 226 322 2 315 248 123 60 52 98 166 93 69 160 281 240 181 36 294 71 103 110 105 98 93 88 79 66 66 70 71
326 324 322 326 328 331 331 333 334 338 338 332 324 323 319 320 316 313 310 310 310 311 308 315 322 344 359 53 36 60 263 226 283 173 188 209 249 281 199 232 152 186 270 247 265 176 182 231 236 262 220 236 347 282 307 153 231 168 160 175 97 336 28 2 97 338 354 15 217 149 166 239 310 121 256 337 82 104 116 103 95 98 95 90 86 67 38 33
324 330 335 334 326 326 329 334 339 338 336 329 325 321 320 317 310 304 306 306 309 309 309 304 317 183 40 340 79 246 254 109 244 209 204 210 234 269 262 257 221 219 210 309 319 205 222 211 242 315 58 297 332 298 335 311 245 75 151 2 4 356 350 260 44 333 74 343 154 152 164 194 358 105 168 191 97 108 108 108 108 103 106 111 108 96 60 40
332 331 330 332 332 334 334 331 337 338 335 327 324 321 317 310 311 308 303 294 296 276 278 323 113 193 189 110 177 218 224 199 178 215 214 204 227 224 253 260 251 279 335 297 307 320 285 317 44 61 187 352 347 321 336 344 351 170 82 23 306 9 4 324 302 237 102 259 135 121 52 7 339 151 225 156 104 107 110 112 112 116 119 121 120 118 127 142
335 333 332 331 336 333 328 327 333 336 330 326 324 321 313 305 306 306 296 291 209 210 273 266 196 244 71 357 236 227 248 207 182 215 239 208 248 261 227 263 293 259 264 257 280 291 329 37 57 23 220 46 281 100 293 303 282 353 33 82 358 8 343 285 303 242 108 235 137 94 18 285 291 261 236 110 111 107 110 117 123 122 126 124 125 129 138 150
335 332 335 335 331 329 330 328 332 332 330 326 323 319 314 300 296 284 272 246 224 227 211 182 156 244 86 236 274 200 207 187 201 211 236 237 235 268 299 288 275 276 261 214 267 280 318 20 66 104 154 66 311 300 351 339 20 200 268 58 297 31 279 278 241 280 163 178 133 80 115 297 341 84 184 115 117 113 113 117 112 111 105 104 101 100 85 38
329 332 334 336 333 332 331 330 332 333 332 327 321 316 310 305 296 282 256 224 205 170 133 123 71 80 26 275 250 276 188 116 182 225 210 199 212 290 280 275 279 257 267 258 256 279 316 37 47 33 320 268 356 18 343 360 349 2 44 307 325 157 277 289 298 161 201 33 86 86 78 137 219 142 131 107 107 108 108 108 106 103 99 92 81 73 65 38
331 333 332 333 333 333 332 332 333 335 332 328 324 315 304 304 296 282 228 190 154 143 153 60 119 112 13 320 275 337 71 160 211 219 221 161 189 224 244 234 248 282 315 289 253 332 353 89 80 204 298 4 48 53 22 20 340 0 104 274 310 274 256 348 293 200 193 129 323 116 173 169 41 262 68 107 109 107 106 103 102 98 94 92 95 87 74 55
332 331 333 333 334 333 333 333 332 334 332 327 325 314 311 312 291 264 236 174 175 178 156 78 131 155 45 246 335 335 241 237 229 281 247 183 181 211 313 102 239 252 298 301 343 3 321 43 301 17 12 205 146 74 38 15 334 320 5 206 220 232 275 253 296 257 202 142 178 106 127 190 177 126 102 111 114 110 109 111 107 105 107 108 102 95 86 71
333 331 332 333 333 333 333 331 332 332 330 325 322 299 301 315 329 297 59 104 141 153 216 322 324 26 298 334 301 245 219 247 165 217 220 214 163 220 223 285 292 259 343 322 352 162 304 322 51 193 351 348 31 49 97 242 199 260 312 301 300 270 235 233 264 244 177 155 148 139 108 181 161 119 108 117 117 118 123 126 125 120 116 107 98 96 91 80
333 331 331 332 332 332 333 331 331 333 328 321 298 299 267 88 37 88 68 44 51 3 14 333 50 101 278 277 243 268 236 234 197 133 203 176 257 10 316 154 160 355 297 78 285 171 337 21 23 36 342 330 301 167 181 222 189 225 239 203 204 273 284 243 235 196 151 137 145 164 152 170 154 114 115 120 122 120 125 123 121 118 113 107 102 102 100 94
334 332 332 332 333 331 333 332 332 333 337 341 2 355 1 12 7 338 343 51 132 194 243 249 196 237 295 293 273 238 250 92 128 286 163 248 132 319 309 38 358 56 95 195 293 274 137 143 189 215 218 238 255 226 210 229 238 247 297 342 302 276 274 274 199 155 157 96 7 152 131 144 159 131 121 122 115 117 127 132 132 134 129 122 114 102 96 91
332 334 333 332 332 331 331 332 331 330 339 275 313 30 38 54 25 330 321 290 249 233 233 253 245 247 252 262 308 131 220 287 164 292 230 90 97 89 288 12 29 335 236 210 191 273 76 146 266 227 225 220 250 245 232 273 342 28 6 17 332 331 340 309 57 99 62 108 336 97 114 146 164 136 126 127 123 133 136 133 131 127 120 114 105 99 96 105
332 334 334 333 331 331 329 329 329 325 336 184 34 50 296 238 196 195 79 319 319 238 223 252 249 255 260 256 247 172 84 32 327 292 272 112 284 114 300 95 352 268 300 341 180 39 171 192 248 232 240 224 200 57 9 9 344 359 78 336 10 330 297 344 31 16 53 85 292 79 102 139 132 77 124 126 118 125 124 124 129 119 109 106 106 107 100 80
332 333 334 334 333 328 329 323 324 318 338 15 4 343 350 302 337 20 101 265 260 276 285 265 254 209 249 287 301 67 38 6 248 251 240 93 32 135 270 32 344 301 350 354 165 136 233 291 245 245 218 66 8 37 37 360 27 13 355 22 322 292 37 353 329 352 5 97 196 99 102 63 82 68 62 37 103 109 109 110 112 117 120 121 123 121 110 99
331 334 334 334 333 332 323 325 310 326 360 326 267 239 300 333 358 50 61 203 283 311 212 250 267 229 233 307 279 110 129 272 110 15 269 93 113 110 66 85 351 12 327 12 25 125 204 255 247 127 53 63 24 344 23 31 336 329 12 145 327 358 33 143 282 351 356 354 87 59 48 22 28 98 60 26 76 98 103 103 97 93 104 114 113 108 111 114
329 334 335 334 337 333 322 319 35 333 296 297 198 351 348 344 20 43 95 335 353 281 265 311 170 338 253 333 332 48 291 338 237 191 233 103 198 37 244 332 85 294 250 343 60 48 334 312 353 37 16 37 51 7 353 82 353 312 275 48 3 66 58 321 65 70 24 339 319 122 39 31 355 57 75 51 84 83 73 105 106 112 108 110 110 112 104 97
328 332 336 337 339 338 318 14 344 334 334 317 5 330 336 327 2 328 101 79 334 265 360 266 27 274 139 331 8 168 64 325 244 230 139 184 147 132 7 344 121 277 322 193 221 165 222 351 40 9 18 12 49 62 340 89 146 49 281 260 2 20 25 24 26 66 54 86 285 98 130 168 326 70 46 98 98 87 44 96 121 125 132 129 127 121 114 119
327 329 335 339 342 348 2 325 318 312 21 321 335 326 315 319 328 46 56 2 24 274 205 245 56 360 65 250 84 41 41 270 299 353 62 213 124 19 111 282 12 326 329 13 42 318 6 7 27 19 33 34 23 27 300 115 92 313 250 323 12 29 13 359 60 100 172 236 294 19 123 152 98 309 301 39 89 74 60 49 114 134 127 127 124 120 122 121
324 327 331 337 337 343 205 303 335 332 238 254 306 311 308 301 351 57 77 77 337 282 47 290 175 277 64 279 107 129 197 220 23 298 318 332 77 355 88 233 110 59 3 66 86 253 11 10 5 11 19 33 13 283 296 344 38 234 284 0 346 335 330 22 56 34 75 71 316 331 329 71 132 196 209 182 106 64 99 93 113 128 130 124 121 126 124 120
321 324 328 328 333 311 128 205 302 266 246 290 311 308 308 339 87 101 113 102 249 73 65 57 276 342 310 331 18 297 337 103 148 250 248 40 61 139 21 279 142 119 53 99 148 302 335 59 303 317 85 353 274 319 343 356 9 290 309 7 33 6 5 32 30 19 352 56 304 285 302 130 173 241 210 300 122 160 177 173 147 144 133 117 104 107 110 109
319 320 323 327 324 301 341 238 222 245 290 301 303 302 317 59 39 40 8 73 263 282 280 237 74 235 42 47 318 332 308 317 218 277 32 136 355 25 65 27 102 55 10 1 121 203 246 272 242 22 137 242 277 285 327 351 293 284 22 37 1 16 14 358 31 72 46 42 257 273 282 129 177 234 186 169 211 183 165 193 216 95 92 102 116 124 124 120
319 314 316 328 310 294 332 309 259 243 256 295 306 310 63 36 105 102 95 228 7 261 339 2 265 18 45 32 320 291 53 345 337 42 10 9 358 36 9 8 36 51 25 3 352 339 341 352 23 278 233 281 61 353 340 12 1 57 2 50 20 343 2 28 344 40 120 272 269 334 10 53 153 286 261 244 263 180 163 161 167 144 128 127 115 111 119 123
313 310 307 315 237 128 156 248 245 336 330 326 325 33 66 44 9 90 244 310 76 292 72 293 297 133 176 219 197 247 220 326 272 78 135 69 56 39 360 133 70 37 349 349 311 352 330 320 274 316 235 78 24 38 318 354 6 41 41 38 114 265 31 325 2 317 210 208 224 332 352 27 4 212 218 226 162 161 211 162 160 149 146 126 116 120 122 125
312 306 306 284 221 195 229 243 291 298 327 316 4 48 63 95 83 261 311 304 244 155 331 150 248 287 239 35 296 281 262 242 272 9 113 51 104 6 337 120 182 135 261 244 333 13 283 296 342 311 353 201 109 86 309 10 341 43 68 105 74 90 56 233 277 229 317 299 261 6 3 137 268 304 224 162 168 172 154 154 153 149 144 132 129 119 106 109
308 307 310 224 209 221 245 228 247 296 319 346 62 31 45 68 237 250 4 237 189 206 274 56 322 319 18 156 242 233 31 290 140 186 69 323 52 98 322 355 79 31 84 157 181 180 38 349 304 5 14 307 69 135 183 210 124 297 166 138 186 143 155 211 208 215 213 212 288 294 26 225 131 239 235 182 166 114 107 118 129 123 126 130 135 114 102 100
306 299 269 279 233 236 229 238 245 218 316 7 51 81 110 226 211 192 267 296 306 79 200 303 62 359 328 352 303 59 40 317 18 57 31 85 331 125 6 299 343 112 97 74 265 81 206 217 254 243 234 14 37 317 252 99 51 302 119 82 66 234 139 154 207 146 214 327 343 351 176 141 152 244 290 182 125 111 127 131 124 112 116 119 99 110 118 120
315 315 281 265 234 251 182 199 172 141 125 54 79 47 162 190 183 235 248 187 285 122 298 9 59 59 311 327 334 57 27 110 320 68 344 87 126 79 250 203 144 158 128 142 200 54 19 317 264 308 353 135 207 44 27 101 139 262 53 138 207 178 104 96 13 48 76 53 254 178 351 327 290 3 130 104 112 134 127 129 122 124 123 117 133 146 145 140
332 326 336 282 266 231 178 159 138 119 79 87 89 234 207 280 203 216 277 130 206 146 62 89 313 95 341 328 320 353 325 45 323 86 330 17 6 343 302 291 186 127 181 131 311 183 144 258 297 21 330 310 255 118 120 65 146 65 90 237 275 67 103 122 183 339 60 153 256 187 197 246 131 249 272 179 160 190 161 140 145 144 131 129 158 150 142 135
318 304 261 273 238 208 167 144 118 87 78 75 109 227 232 220 278 188 207 102 24 28 93 109 261 110 307 87 334 313 325 93 300 40 205 342 194 227 270 173 254 206 197 143 118 272 112 355 302 267 268 280 331 46 4 327 29 158 187 203 91 264 244 323 96 242 168 249 255 302 219 239 193 232 187 204 192 203 192 163 129 131 119 126 129 110 98 103
276 352 328 258 232 177 137 131 95 87 51 58 255 351 265 216 263 180 220 154 95 113 83 219 145 290 128 87 236 314 9 71 313 196 81 299 78 218 197 162 307 281 260 122 71 272 43 143 301 310 73 309 5 57 277 294 331 20 60 51 197 107 160 116 203 176 117 238 105 291 87 238 208 217 188 201 198 184 179 171 166 166 158 143 130 118 101 115
326 17 294 276 340 122 129 109 79 46 73 199 228 222 236 276 269 236 241 123 244 89 236 132 160 85 14 171 190 111 301 108 66 282 112 308 135 324 245 37 196 297 355 116 140 122 271 121 236 277 311 30 327 16 199 177 135 340 37 332 321 32 206 120 312 152 167 185 180 174 277 274 258 208 177 203 193 188 176 179 178 177 164 150 136 121 98 35
297 133 264 279 326 81 78 59 68 120 190 265 210 242 324 262 297 303 260 141 116 164 152 171 158 138 201 67 346 235 181 32 67 56 135 290 127 333 266 220 106 339 65 24 61 2 71 18 214 307 4 262 233 243 186 165 156 184 172 206 175 121 129 151 256 350 144 107 220 144 241 264 269 180 177 198 206 182 187 170 176 169 159 147 138 133 130 123
9 297 260 288 341 3 89 75 261 166 152 226 244 186 255 263 280 239 193 304 113 148 33 112 207 137 132 177 184 18 88 357 188 95 263 146 254 148 272 32 351 180 109 115 175 229 141 173 94 282 219 226 258 275 283 248 121 118 150 229 151 121 108 106 189 268 12 256 145 159 191 275 245 181 169 190 183 182 177 161 155 159 156 159 163 163 179 176
229 235 260 285 315 29 65 260 311 78 204 228 266 272 255 255 226 225 136 262 63 108 68 90 192 107 252 136 239 114 152 135 188 188 211 146 220 206 241 315 292 319 91 344 22 302 88 81 52 290 308 292 307 278 311 22 97 51 13 88 110 161 181 176 173 186 145 309 4 343 234 251 286 199 166 172 179 160 160 157 152 158 157 164 167 178 192 212
266 278 309 297 167 132 143 212 246 251 265 298 273 259 294 256 204 213 175 211 140 61 152 172 356 147 183 162 102 176 193 41 257 136 323 186 214 243 229 299 66 150 121 213 140 244 58 297 124 353 358 335 344 349 1 333 32 152 183 245 199 150 134 183 101 69 150 227 176 133 232 285 283 293 116 127 140 147 159 180 152 152 172 169 180 190 198 219
297 274 246 293 351 105 195 192 169 219 234 256 290 299 314 328 219 186 164 200 112 145 108 249 186 152 170 197 164 157 158 150 252 268 160 190 215 256 267 17 91 107 107 189 156 128 104 204 97 135 142 135 297 310 274 289 251 252 219 229 223 178 139 92 207 76 144 273 134 169 257 252 275 130 152 163 161 154 171 169 178 160 166 175 188 189 194 205
268 311 294 320 321 105 243 167 140 162 254 239 322 264 210 240 318 14 89 340 164 139 147 168 297 133 165 110 88 156 264 166 144 242 142 239 258 257 206 76 46 217 179 174 139 85 152 170 113 154 153 188 213 217 247 125 39 49 269 198 228 214 186 133 99 102 200 228 201 233 187 245 271 218 193 193 177 168 171 171 169 181 185 183 180 186 194 204
313 253 246 317 337 234 251 255 240 114 243 184 191 234 247 215 220 315 82 128 224 146 168 155 188 127 289 120 195 208 232 265 336 141 219 204 236 227 58 120 107 153 148 181 154 80 67 17 264 175 206 215 221 218 218 164 210 246 233 266 217 184 175 153 159 219 188 107 259 258 207 170 242 219 210 194 190 181 176 176 181 183 183 180 190 201 215 218
250 261 37 270 194 248 223 277 255 246 250 193 250 274 274 285 263 183 344 218 223 104 129 332 218 191 179 185 157 160 218 196 75 193 288 257 104 336 23 311 105 174 160 202 152 117 139 166 268 145 265 241 226 222 214 159 240 231 231 222 227 215 164 183 215 220 149 190 218 251 185 198 245 210 206 197 183 185 181 183 187 183 175 174 185 209 223 224
210 287 277 330 81 257 139 264 288 265 259 210 252 216 243 242 249 206 171 184 80 222 133 201 245 237 218 169 144 216 202 141 301 284 183 201 165 161 15 345 328 25 133 99 130 159 87 224 231 182 259 299 287 269 161 202 219 261 271 249 233 232 225 201 221 211 189 220 216 228 198 214 222 215 206 207 187 177 186 177 148 155 181 188 199 211 216 220
310 9 317 337 279 298 275 268 263 358 338 241 203 257 219 192 225 274 312 131 184 262 176 175 225 219 194 164 184 197 209 178 178 206 251 131 337 131 210 185 193 311 129 114 123 323 109 270 202 100 32 296 274 282 178 202 206 232 244 252 252 236 251 241 233 247 205 252 258 217 212 245 257 211 216 178 167 158 143 165 178 187 184 194 203 209 214 215
283 308 314 320 313 275 274 249 24 14 332 322 215 276 281 255 251 205 237 173 160 188 176 205 206 204 184 137 142 230 242 198 172 193 188 150 178 219 133 279 151 187 144 143 144 163 102 250 41 79 11 301 292 330 306 181 225 228 247 251 252 240 249 235 215 218 178 226 233 114 225 257 267 218 160 154 157 165 178 183 186 194 194 196 206 211 211 214
266 273 260 256 288 281 290 309 208 56 304 239 219 305 340 303 300 308 303 275 211 189 179 190 191 155 240 168 239 223 209 173 186 199 185 194 173 190 172 192 173 161 195 176 180 135 168 139 121 70 299 257 263 34 316 9 85 319 273 241 228 223 209 246 251 216 206 167 152 190 234 220 207 159 138 177 169 182 179 186 192 196 200 201 208 210 209 211